Regional Weather Roundup
Issued by NWS Wakefield, VA

Home | Current Version | Previous Version | Graphics & Text | Print | Product List | Glossary On
Versions: 1 2 3 4 5 6 7 8 9 10 11 12 13 14 15 16 17 18 19 20 21 22 23 24 25 26 27 28 29 30 31 32 33 34 35 36 37 38 39 40 41 42 43 44 45 46 47 48 49 50
382
ASUS41 KAKQ 251515
RWRAKQ

REGIONAL WEATHER ROUNDUP
NATIONAL WEATHER SERVICE WAKEFIELD VA
1100 AM EDT WED MAY 25 2016

Note: "fair" indicates few or no clouds below 12,000 feet with no
significant weather and/or obstructions to visibility. * = Denotes
station may not report precipitation (e.g., rain,snow,etc.),
thunder or fog.

VAZ042-051-052>054-056-251600-
NORTHERN VIRGINIA

CITY           SKY/WX    TMP DP  RH WIND       PRES   REMARKS
WASH NATIONAL  CLOUDY    78  58  49 CALM      30.15F
DULLES         PTSUNNY   80  55  42 W5        30.16F
FORT BELVOIR   FAIR      82  55  38 CALM      30.15F
QUANTICO       FAIR      71  62  73 SW6       30.17S
FREDERICKSBRG* FAIR      81  55  41 N5        30.16S
STAFFORD*      FAIR      80  54  40 N5        30.20S
WARRENTON      FAIR      83  46  27 NW3       30.17S
CULPEPER*      FAIR      80  56  43 NW6       30.18S
MANASSAS*      SUNNY     81  57  44 CALM      30.16F
LEESBURG*      FAIR      82  59  44 NW9       30.17F
WINCHESTER     FAIR      77  55  47 S5        30.18S
FRONT ROYAL*   FAIR      77  57  50 S7        30.18S
LURAY*         FAIR      73  55  53 S5        30.21S
$$

VAZ048-049-060>072-079>083-251600-
CENTRAL AND SOUTH CENTRAL VIRGINIA

CITY           SKY/WX    TMP DP  RH WIND       PRES   REMARKS
RICHMOND       PTSUNNY   82  54  37 NE3       30.18S
CHESTERFIELD*  FAIR      82  54  36 W6        30.20S
PETERSBURG*    FAIR      82  54  38 W3        30.19F
HANOVER        FAIR      81  54  39 W5        30.19F
TAPPAHANNOCK*  FAIR      80  56  43 CALM      30.18S
QUINTON*       FAIR      80  56  43 N3        30.17F
CHARLOTTSVILLE FAIR      79  54  41 VRB3      30.19S
GORDONSVILLE*  FAIR      79  53  40 W3        30.18S
ORANGE*        FAIR      81  54  39 CALM      30.20S
LOUISA*        FAIR      82  57  42 W5        30.17F
BUMPASS*       FAIR      80  57  45 CALM      30.18S
FARMVILLE*     FAIR      81  51  34 CALM      30.19S
CREWE*         FAIR      80  56  44 NW5       30.20S
FORT PICKETT*  NOT AVBL
CHASE CITY*    FAIR      78  53  41 CALM      30.21F
CLARKSVILLE*   FAIR      77  59  53 CALM      30.21F
SOUTH HILL*    FAIR      76  62  61 CALM      30.26S
LAWRENCEVILLE* FAIR      78  62  58 CALM      30.20S
EMPORIA*       FAIR     N/A N/A N/A MISG      30.22S
$$

VAZ088>098-251600-
SOUTHEAST VIRGINIA

CITY           SKY/WX    TMP DP  RH WIND       PRES   REMARKS
NORFOLK        FAIR      80  58  46 VRB3      30.18F
VIRGINIA BEACH FAIR      83  58  42 CALM      30.17F
NORFOLK NAVAL  FAIR      78  59  51 W5        30.20S
WEST POINT*    FAIR      78  59  51 W3        30.19S
SALUDA*        FAIR      78  60  52 W5        30.17S
NEWPORT NEWS   FAIR      80  58  46 CALM      30.18S
LANGLEY AFB    MOSUNNY   80  60  50 VRB1      30.18S
FORT EUSTIS    SUNNY     78  64  61 W2        30.17S
WILLIAMSBURG*  FAIR      82  63  51 CALM      30.19S
HR EXEC AP*    FAIR      81  59  47 CALM      30.21R
FRANKLIN*      FAIR      78  59  52 CALM      30.20S
US460-WAKEFLD  FAIR      81  59  47 SW5       30.19S
$$

VAZ020-022-025-037-045-251600-
WEST CENTRAL AND SOUTHWEST VIRGINIA

CITY           SKY/WX    TMP DP  RH WIND       PRES   REMARKS
STAUNTON*      FAIR      73  54  51 CALM      30.25R
WAYNESBORO*    FAIR      74  52  45 CALM      30.24R
HOT SPRINGS VA FAIR      67  48  50 NW10      30.31S
LYNCHBURG      FAIR      76  52  43 VRB6      30.24S
DANVILLE       FAIR      77  58  51 CALM      30.22S
SOUTH BOSTON*  FAIR      79  57  47 CALM      30.21F
MARTINSVILLE   FAIR      76  56  49 SE3       30.26S
ROANOKE        FAIR      75  55  49 CALM      30.26S
BLACKSBURG     FAIR      71  58  63 CALM      30.31S
DUBLIN*        FAIR      73  56  56 CALM      30.30R
MARION*        FAIR      74  50  43 W10       30.33R
HILLSVILLE*    FAIR      71  49  46 S5        30.30R
RICHLANDS*     FAIR      72  50  46 CALM      30.31R
WISE*          FAIR      73  45  35 S6        30.31S
ABINGDON*      FAIR      74  53  48 CALM      30.30R
$$

MDZ021>025-VAZ099-100-251600-
SOUTHERN MARYLAND AND THE DELMARVA PENINSULA

CITY           SKY/WX    TMP DP  RH WIND       PRES   REMARKS
PATUXENT RIVER PTSUNNY   80  55  42 NW8       30.15F
BAY BRIDGE APT SUNNY     79  57  47 W6        30.14S
LEONARDTOWN    SUNNY     79  55  44 CALM      30.17S
DOVER          MOSUNNY   80  60  51 W7        30.11F
GEORGETOWN     SUNNY     82  53  36 VRB6      30.14F
EASTON         MOSUNNY   81  63  54 NW6       30.18S
CAMBRIDGE      NOT AVBL
SALISBURY      SUNNY     81  54  39 SW5       30.14S
OCEAN CITY     SUNNY     81  55  40 CALM      30.14S
WALLOPS ISLAND PTSUNNY   82  54  37 W6        30.16S
ACCOMACK*      FAIR      79  55  44 NW6       30.17S
$$

NCZ012>017-030>032-251600-
NORTH CENTRAL AND EASTERN NORTH CAROLINA

CITY           SKY/WX    TMP DP  RH WIND       PRES   REMARKS
ROANOKE RAPIDS FAIR      79  59  50 W5        30.21S
RALEIGH        MOSUNNY   80  60  50 SW5       30.23S
ELIZABETH CITY SUNNY     80  60  50 W10       30.20S
AHOSKIE*       SUNNY     77  60  56 CALM      30.21S
EDENTON*       SUNNY     78  78 100 W5        30.22S
CURRITUCK*     SUNNY     79  59  49 W8        30.20S
KILL DEVIL HLS SUNNY     79  60  51 CALM      30.20S
MANTEO         SUNNY     78  61  54 W6        30.22R
CAPE HATTERAS  SUNNY     75  65  70 W7        30.23S
TARBORO*       FAIR      80  63  55 W6        30.22F
GOLDSBORO      SUNNY     80  66  62 VRB5      30.21F
WASHINGTON     SUNNY     80  63  56 SW8       30.22F
GREENVILLE     SUNNY     81  63  54 W5        30.23S
NEW BERN       SUNNY     81  62  52 W6        30.24F
WILMINGTON     SUNNY     81  61  50 VRB7      30.24F
$$

VAZ048-251600-
ELSEWHERE

CITY           SKY/WX    TMP DP  RH WIND       PRES   REMARKS
HARRISBURG PA  CLOUDY    79  54  41 NW9       30.12S
BALTIMORE      PTSUNNY   82  52  35 W12       30.13F
ANNAPOLIS      SUNNY     76  58  53 N6        30.14S
ANDREWS AFB    FAIR      80  54  40 W8        30.15S
PHILADELPHIA   MOSUNNY   80  43  26 VRB5      30.11F
HENDERSON NC   SUNNY     76  56  50 CALM      30.22S
GREENSBORO     PTSUNNY   78  53  41 CALM      30.23S
ROCKY MOUNT    SUNNY     80  61  52 W6        30.22S
$$

VAZ100-251600-
MARINE

STATION/POSITION TIME  TEMP    WIND        PRES    WAVE   SWELL
                       AIR SEA DIR/SP/G            HT/PER HT/PER
                 (UTC) (F)     (DEG/KT/KT) (MB)    (FT/S) (FT/S)
BRANDYWINE LGT   1400   69     270/  7/  7 1020.5R
CAPE MAY NJ      1400   67 64  240/  4/  5 1020.3R
LEWES DE         1400   74 60  330/  4/  4 1020.5R
15NM E FENWICK I 1450   62 57              1020.7R   2/11
OCEAN-CITY-INLET 1400   76 60   20/  3/  4 1021.0R
WACHAPREAGUE VA  1400   80 68  300/  1/  7 1021.1R
THOMAS POINT MD  1500   74 63  210/  4/  5 1022.0F
GOOSES REEF MD   1500   70 66  130/  4/  4 1021.8F   1
COVE POINT MD    1400   71      40/  5/  5 1021.6F
SOLOMONS ISLAND  1400   74 63  340/  7/  8   N/A
BISHOPS HEAD MD  1400   67 67  260/  6/  6 1021.3F
PINEY POINT MD   1400          340/  8/  8   N/A
POTOMAC MD       1500   67 66  300/  6/  6 1020.4F   0
LEWISETTA VA     1400   76 67  310/  3/  4 1021.0F
RAPPAHANNOCK LGT 1400          190/  3/  4 1022.4R
STINGRAY PT      1500   70 67  170/  2/  4 1022.0F   0
JAMESTOWN VA     1500   71 68  310/  4/  4   N/A     0
DOMINION TERM VA 1400   71     320/  3/  4 1022.1R
KIPTOPEKE VA     1400      65  300/  2/  3   N/A
CHES BAY BRIDGE  1400   68 65  240/  8/  9 1022.0R
CAPE HENRY VA    1400   74     270/  9/ 11   N/A
CHESAPEAKE LGHT  1400   71     280/ 11/ 12 1022.7R
WILLOUBY STN VA  1400   69     230/  8/  8 1023.0R
CAPE HENRY BUOY  1412      62                N/A     2/ 8
1ST LANDING BUOY 1500   68 65  270/  6/  6 1021.9F   1/ 4
CAPE CHARLES BUO 1426      62                N/A     2/ 9
OFFSHORE WE BUOY 1421      60                N/A     2/ 9
64NM E OF VA BCH 1450   60 57  250/  4/  6 1022.1R   3/ 6   3/ 6
DUCK PIER NC     1400   72 61  240/ 10/ 13 1022.0S
44100 DUCK FRF   1424      63                N/A     2/ 9
44056 DUCK FRF   1411      62                N/A     2/ 8
OREGON INLET NC  1412   71 68  220/  5/  5 1023.1R
HATTERAS NC      1418   71 68  260/  9/ 11 1023.3R
DIAMOND SHLS NC  1450   68 68  280/  8/  8 1023.8S   3/ 9   2/ 9
CAPE LOOKOUT NC  1500   73     250/  9/ 11 1023.9R
$$




USA.gov is the U.S. government's official web portal to all federal, state and local government web resources and services.